Location: Patterson (historical)
(35.1418°N, 90.5529°W)
Time: 17:55:29
(UTC+00:00)

YAOGAN 1 - Pass Details

Date: 11 December 2025
Orbit: 605 x 607 km, 97.8° (Epoch: 20 January)

Event Time Altitude Azimuth Distance (km) Brightness Sun altitude
Rises 23:19:12 0° 118° (ESE) 2,855 5.6 -6.1°
Reaches altitude 10° 23:22:52 10° 84° (E) 1,957 4.5 -6.8°
Maximum altitude 23:24:12 11° 66° (ENE) 1,873 4.3 -7.0°
Drops below altitude 10° 23:25:31 10° 47° (NE) 1,961 4.5 -7.3°
Sets 23:29:12 0° 14° (NNE) 2,871 5.6 -8.0°
